TimeCST,TemperatureF,Dew PointF,Humidity,Sea Level PressureIn,VisibilityMPH,Wind Direction,Wind SpeedMPH,Gust SpeedMPH,PrecipitationIn,Events,Conditions,WindDirDegrees,DateUTC
12:53 AM,33.1,33.1,100,30.23,10.0,SSW,3.5,-,N/A,,Clear,200,2013-11-03 05:53:00
1:53 AM,34.0,33.1,96,30.23,10.0,Calm,Calm,-,N/A,,Clear,0,2013-11-03 06:53:00
1:53 AM,32.0,30.9,96,30.23,10.0,Calm,Calm,-,N/A,,Clear,0,2013-11-03 07:53:00
2:53 AM,30.9,30.0,96,30.22,8.0,Calm,Calm,-,N/A,,Clear,0,2013-11-03 08:53:00
3:42 AM,30.2,30.2,100,30.21,2.0,Calm,Calm,-,N/A,,Partly Cloudy,0,2013-11-03 09:42:00
3:53 AM,30.0,30.0,100,30.23,1.2,Calm,Calm,-,N/A,,Partly Cloudy,0,2013-11-03 09:53:00
3:55 AM,28.4,28.4,100,30.21,0.8,Calm,Calm,-,N/A,,Mist,0,2013-11-03 09:55:00
4:04 AM,30.2,30.2,100,30.21,1.2,Calm,Calm,-,N/A,,Partly Cloudy,0,2013-11-03 10:04:00
4:12 AM,28.4,28.4,100,30.21,2.5,Calm,Calm,-,N/A,,Partly Cloudy,0,2013-11-03 10:12:00
4:19 AM,30.2,28.4,93,30.21,4.0,Calm,Calm,-,N/A,,Partly Cloudy,0,2013-11-03 10:19:00
4:53 AM,30.0,28.9,96,30.23,10.0,Calm,Calm,-,N/A,,Clear,0,2013-11-03 10:53:00
5:53 AM,28.9,28.0,96,30.24,9.0,Calm,Calm,-,N/A,,Clear,0,2013-11-03 11:53:00
6:53 AM,28.9,28.0,96,30.24,7.0,Calm,Calm,-,N/A,,Clear,0,2013-11-03 12:53:00
7:53 AM,33.1,32.0,96,30.24,10.0,Calm,Calm,-,N/A,,Clear,0,2013-11-03 13:53:00
8:53 AM,46.0,39.0,76,30.24,10.0,Calm,Calm,-,N/A,,Clear,0,2013-11-03 14:53:00
9:53 AM,54.0,37.0,53,30.22,10.0,South,13.8,21.9,N/A,,Clear,170,2013-11-03 15:53:00
10:53 AM,55.9,36.0,47,30.20,10.0,South,13.8,21.9,N/A,,Clear,170,2013-11-03 16:53:00
11:53 AM,57.0,36.0,45,30.17,10.0,SSE,8.1,18.4,N/A,,Clear,160,2013-11-03 17:53:00
12:53 PM,57.9,36.0,44,30.12,10.0,SSE,11.5,-,N/A,,Clear,150,2013-11-03 18:53:00
1:53 PM,57.9,36.0,44,30.10,10.0,SSE,10.4,17.3,N/A,,Clear,160,2013-11-03 19:53:00
2:53 PM,57.9,36.0,44,30.11,10.0,SE,10.4,-,N/A,,Clear,140,2013-11-03 20:53:00
3:53 PM,57.0,36.0,45,30.06,10.0,SSE,8.1,21.9,N/A,,Clear,150,2013-11-03 21:53:00
4:53 PM,54.0,37.9,55,30.09,10.0,South,9.2,-,N/A,,Clear,190,2013-11-03 22:53:00
5:53 PM,53.1,37.9,57,30.09,10.0,SE,8.1,-,N/A,,Clear,130,2013-11-03 23:53:00
6:53 PM,53.1,37.9,57,30.08,10.0,SSE,6.9,-,N/A,,Clear,150,2013-11-04 00:53:00
7:53 PM,52.0,37.9,59,30.09,10.0,South,9.2,-,N/A,,Clear,170,2013-11-04 01:53:00
8:53 PM,51.1,39.0,63,30.11,10.0,South,11.5,18.4,N/A,,Clear,180,2013-11-04 02:53:00
9:53 PM,52.0,39.0,61,30.09,10.0,SSE,10.4,-,N/A,,Clear,150,2013-11-04 03:53:00
10:53 PM,51.1,39.0,63,30.06,10.0,SE,11.5,19.6,N/A,,Clear,140,2013-11-04 04:53:00